Location: Pian di Sc�
(43.6333°N, 11.5500°E)
Time: 17:07:29
(UTC+00:00)

CZ-2C R/B - Pass Details

Date: 07 August 2020
Orbit: 501 x 568 km, 97.7° (Epoch: 19 September)

Event Time Altitude Azimuth Distance (km) Brightness Sun altitude
Rises 03:20:23 0° 3° (N) 2,718 6.9 -8.7°
Reaches altitude 10° 03:22:40 10° 354° (N) 1,808 5.8 -8.4°
Maximum altitude 03:26:11 33° 290° (WNW) 913 3.6 -7.8°
Drops below altitude 10° 03:29:36 10° 226° (SW) 1,759 4.8 -7.3°
Enters shadow 03:29:56 - 224° (SW) 1,884 4.9 -7.2°
